[TLELIST] Archives

 

[TLELIST] Current TLEs

January 20th 2024 PDT

HST 1 20580U 90037B 24019.96306392 .00006812 00000-0 33916-3 0 9990 2 20580 28.4685 263.2260 0002326 208.2456 265.3001 15.15619275654353 ISS (ZARYA) 1 25544U 98067A 24020.37097905 .00021039 00000-0 38035-3 0 9995 2 25544 51.6421 332.7416 0005071 109.3432 33.7475 15.49636107435476 CXO 1 25867U 99040B 24019.78299550 .00000376 00000-0 00000+0 0 9996 2 25867 38.3920 169.3952 9004742 284.7509 0.2576 0.37810394 25159 ...Continue Reading

[TLELIST] Current TLEs

January 19th 2024 PDT

HST 1 20580U 90037B 24018.90487627 .00007168 00000-0 35752-3 0 9999 2 20580 28.4682 270.2943 0002322 195.2970 253.0520 15.15605553654194 ISS (ZARYA) 1 25544U 98067A 24019.34240294 .00021021 00000-0 38062-3 0 9992 2 25544 51.6423 337.8345 0005147 104.3142 56.9622 15.49592244435319 CXO 1 25867U 99040B 24019.78299550 .00000376 00000-0 00000+0 0 9996 2 25867 38.3920 169.3952 9004742 284.7509 0.2576 0.37810394 25159 ...Continue Reading

[TLELIST] Current TLEs

January 18th 2024 PDT

HST 1 20580U 90037B 24018.12558428 .00007275 00000-0 36310-3 0 9991 2 20580 28.4683 275.4985 0002313 185.7338 322.1987 15.15594755654343 ISS (ZARYA) 1 25544U 98067A 24018.36380118 .00020870 00000-0 37850-3 0 9998 2 25544 51.6427 342.6785 0005121 101.7196 356.8658 15.49550055435165 CXO 1 25867U 99040B 24019.78299550 .00000376 00000-0 00000+0 0 9996 2 25867 38.3920 169.3952 9004742 284.7509 0.2576 0.37810394 25159 ...Continue Reading

[TLELIST] Current TLEs

January 17th 2024 PDT

HST 1 20580U 90037B 24016.14336645 .00007699 00000-0 38516-3 0 9996 2 20580 28.4691 288.7336 0002498 166.3960 304.8254 15.15563802653778 ISS (ZARYA) 1 25544U 98067A 24017.33474374 .00020201 00000-0 36727-3 0 9992 2 25544 51.6426 347.7749 0005009 100.0286 14.3678 15.49504002435009 CXO 1 25867U 99040B 24017.13982198 .00000461 00000-0 00000-0 0 9996 2 25867 38.3406 169.8027 9003816 284.4190 0.4619 0.37808941 13994 ...Continue Reading

[TLELIST] Current TLEs

January 16th 2024 PDT

HST 1 20580U 90037B 24016.14336645 .00007699 00000-0 38516-3 0 9996 2 20580 28.4691 288.7336 0002498 166.3960 304.8254 15.15563802654038 ISS (ZARYA) 1 25544U 98067A 24016.37639427 .00019671 00000-0 35838-3 0 9998 2 25544 51.6426 352.5203 0005018 96.8450 68.2053 15.49462555434856 CXO 1 25867U 99040B 24017.13982198 .00000461 00000-0 00000-0 0 9996 2 25867 38.3406 169.8027 9003816 284.4190 0.4619 0.37808941 13994 ...Continue Reading

[TLELIST] Current TLEs

January 15th 2024 PDT

HST 1 20580U 90037B 24014.95173163 .00008413 00000-0 42200-3 0 9997 2 20580 28.4695 296.6904 0002498 153.7632 282.9443 15.15545627653598 ISS (ZARYA) 1 25544U 98067A 24015.20611772 .00017842 00000-0 32648-3 0 9996 2 25544 51.6428 358.3153 0004931 92.6192 20.3337 15.49411179434676 CXO 1 25867U 99040B 24017.13982198 .00000461 00000-0 00000-0 0 9996 2 25867 38.3406 169.8027 9003816 284.4190 0.4619 0.37808941 13994 ...Continue Reading

[TLELIST] Current TLEs

January 14th 2024 PDT

HST 1 20580U 90037B 24013.24839067 .00007129 00000-0 35643-3 0 9996 2 20580 28.4699 308.0639 0002576 135.8471 349.0591 15.15518592653336 ISS (ZARYA) 1 25544U 98067A 24014.37346274 .00015662 00000-0 28800-3 0 9998 2 25544 51.6431 2.4387 0004979 90.2866 55.1910 15.49377144434542 CXO 1 25867U 99040B 24009.20773412 .00000606 00000-0 00000+0 0 9992 2 25867 38.2285 170.7177 9004772 283.7284 0.3392 0.37813899 25115 ...Continue Reading

[TLELIST] Current TLEs

January 13th 2024 PDT

HST 1 20580U 90037B 24012.97509660 .00007010 00000-0 35035-3 0 9992 2 20580 28.4700 309.8883 0002586 132.9037 297.9767 15.15514497653297 ISS (ZARYA) 1 25544U 98067A 24013.33307216 .00118192 00000-0 20926-2 0 9998 2 25544 51.6402 7.5856 0004874 89.8117 8.8574 15.49380128434383 CXO 1 25867U 99040B 24009.20773412 .00000606 00000-0 00000+0 0 9992 2 25867 38.2285 170.7177 9004772 283.7284 0.3392 0.37813899 25115 ...Continue Reading

[TLELIST] Current TLEs

January 12th 2024 PDT

HST 1 20580U 90037B 24012.19651178 .00007008 00000-0 35039-3 0 9999 2 20580 28.4702 315.0868 0002590 124.2408 10.3455 15.15503331653434 ISS (ZARYA) 1 25544U 98067A 24012.37491745 .00015484 00000-0 27586-3 0 9992 2 25544 51.6421 12.3248 0004254 24.5531 125.2537 15.50292054434230 CXO 1 25867U 99040B 24009.20773412 .00000606 00000-0 00000+0 0 9992 2 25867 38.2285 170.7177 9004772 283.7284 0.3392 0.37813899 25115 ...Continue Reading

[TLELIST] Current TLEs

January 11th 2024 PDT

HST 1 20580U 90037B 24010.28323428 .00005912 00000-0 29430-3 0 9991 2 20580 28.4707 327.8603 0002613 104.9653 10.4281 15.15476605652889 ISS (ZARYA) 1 25544U 98067A 24011.26829558 .00014096 00000-0 25226-3 0 9993 2 25544 51.6427 17.8113 0003857 19.3092 70.3630 15.50251603434069 CXO 1 25867U 99040B 24009.20773412 .00000606 00000-0 00000+0 0 9992 2 25867 38.2285 170.7177 9004772 283.7284 0.3392 0.37813899 25115 ...Continue Reading
  • This mailing list is a public mailing list - anyone may join or leave, at any time.
  • This mailing list is announce-only.

International Space Station (ISS) / Hubble Space Telescope (HST) / Chandra X-Ray Observatory Orbital Data via EMAIL

Privacy Policy:

Private list